DW9161 Weather Reports


Display with metric or nautical units.
time (UTC)temp
F
wind
direction
speed
MPH
gust
MPH
rain 1hr
in
rain 24hr
in
rain mn
in
humidity
%
barometer
mb
20260905080554 80 189 1.0 2.0 0.00 0.00 0.00 77 1013.1
20260905080040 80 189 1.0 2.0 0.00 0.00 0.00 77 1013.1
20260905075550 80 189 0.0 1.0 0.00 0.00 0.00 76 1013.2
20260905075047 80 189 0.0 1.0 0.00 0.00 0.00 76 1013.2
20260905074556 80 189 0.0 1.0 0.00 0.00 0.00 76 1013.2
20260905074034 81 189 0.0 1.0 0.00 0.00 0.00 76 1013.2
20260905073555 81 189 0.0 1.0 0.00 0.00 0.00 75 1013.3
20260905073042 81 189 0.0 2.0 0.00 0.00 0.00 75 1013.3
20260905072545 81 189 0.0 2.0 0.00 0.00 0.00 75 1013.3
20260905072053 81 189 1.0 2.0 0.00 0.00 0.00 75 1013.4
20260905071557 81 189 0.0 2.0 0.00 0.00 0.00 74 1013.4
20260905071110 81 189 1.0 3.0 0.00 0.00 0.00 74 1013.4
20260905070611 81 189 1.0 3.0 0.00 0.00 0.00 74 1013.4
20260905070036 81 189 0.0 1.0 0.00 0.00 0.00 75 1013.3
20260905065549 81 189 0.0 1.0 0.00 0.00 0.00 75 1013.4
20260905065038 81 189 0.0 2.0 0.00 0.00 0.00 75 1013.4
20260905064539 81 189 0.0 2.0 0.00 0.00 0.00 75 1013.5
20260905064045 81 189 1.0 2.0 0.00 0.00 0.00 75 1013.5
20260905063555 81 189 0.0 2.0 0.00 0.00 0.00 75 1013.5
20260905063038 81 189 1.0 2.0 0.00 0.00 0.00 75 1013.6
20260905062606 81 189 1.0 1.0 0.00 0.00 0.00 76 1013.5
20260905062040 81 189 0.0 1.0 0.00 0.00 0.00 75 1013.5
20260905061537 82 189 0.0 0.0 0.00 0.00 0.00 75 1013.5
20260905061050 82 189 0.0 1.0 0.00 0.00 0.00 75 1013.6
20260905060607 82 189 0.0 1.0 0.00 0.00 0.00 74 1013.5
20260905060035 82 189 0.0 1.0 0.00 0.00 0.00 74 1013.6
20260905055553 82 189 0.0 2.0 0.00 0.00 0.00 74 1013.6
20260905055038 83 189 0.0 2.0 0.00 0.00 0.00 73 1013.5
20260905054603 83 189 1.0 2.0 0.00 0.00 0.00 73 1013.5
20260905054050 83 189 0.0 2.0 0.00 0.00 0.00 73 1013.5
20260905053542 83 189 1.0 3.0 0.00 0.00 0.00 72 1013.5
20260905053034 83 189 0.0 3.0 0.00 0.00 0.00 73 1013.4
20260905052548 83 185 1.0 3.0 0.00 0.00 0.00 73 1013.3
20260905052045 83 191 0.0 2.0 0.00 0.00 0.00 73 1013.3
20260905051603 83 191 0.0 1.0 0.00 0.00 0.00 73 1013.3
20260905051035 83 191 0.0 1.0 0.00 0.00 0.00 73 1013.3
20260905050603 83 191 0.0 1.0 0.00 0.00 0.00 73 1013.4
20260905050056 83 191 0.0 2.0 0.00 0.00 0.00 73 1013.3
20260905045557 83 191 0.0 2.0 0.00 0.00 0.00 74 1013.2
20260905045048 83 191 0.0 2.0 0.00 0.00 0.00 74 1013.3
20260905044542 84 191 0.0 2.0 0.00 0.00 0.00 74 1013.2
20260905044107 84 191 0.0 2.0 0.00 0.00 0.00 74 1013.1
20260905043605 84 191 0.0 2.0 0.00 0.00 0.00 74 1013.0
20260905043032 84 191 1.0 2.0 0.00 0.00 0.00 74 1013.0
20260905042550 84 195 1.0 2.0 0.00 0.00 0.00 73 1013.0
20260905042027 84 195 1.0 2.0 0.00 0.00 0.00 73 1013.0
20260905041600 85 195 1.0 3.0 0.00 0.00 0.00 73 1013.0
20260905041037 85 195 1.0 3.0 0.00 0.00 0.00 72 1013.0
20260905040609 85 195 0.0 3.0 0.00 0.00 0.00 72 1012.9
20260905040047 85 195 1.0 4.0 0.00 0.00 0.00 72 1013.0
20260905035545 85 195 1.0 4.0 0.00 0.00 0.00 72 1012.9
20260905035043 85 194 1.0 3.0 0.00 0.00 0.00 72 1013.0
20260905034603 85 195 1.0 3.0 0.00 0.00 0.00 72 1012.9
20260905034040 85 195 1.0 3.0 0.00 0.00 0.00 72 1012.9
20260905033538 85 191 1.0 5.0 0.00 0.00 0.00 72 1012.9
20260905033036 86 191 1.0 3.0 0.00 0.00 0.00 72 1012.8
20260905032554 86 188 1.0 3.0 0.00 0.00 0.00 72 1012.7
20260905032030 86 191 1.0 3.0 0.00 0.00 0.00 72 1012.6
20260905031549 86 191 1.0 3.0 0.00 0.00 0.00 72 1012.5
20260905031029 86 191 1.0 3.0 0.00 0.00 0.00 72 1012.6
20260905030603 86 191 1.0 2.0 0.00 0.00 0.00 72 1012.5
20260905030038 86 191 1.0 2.0 0.00 0.00 0.00 72 1012.4
20260905025557 86 191 1.0 2.0 0.00 0.00 0.00 72 1012.5
20260905025053 86 191 1.0 1.0 0.00 0.00 0.00 72 1012.4
20260905024550 86 191 0.0 1.0 0.00 0.00 0.00 72 1012.4
20260905024047 87 191 0.0 1.0 0.00 0.00 0.00 72 1012.4
20260905023544 87 191 0.0 1.0 0.00 0.00 0.00 71 1012.4
20260905023039 87 191 0.0 2.0 0.00 0.00 0.00 71 1012.5
20260905022533 87 191 0.0 2.0 0.00 0.00 0.00 71 1012.4
20260905022031 88 193 0.0 2.0 0.00 0.00 0.00 71 1012.4
20260905021547 88 192 0.0 1.0 0.00 0.00 0.00 70 1012.4
20260905021042 88 192 0.0 2.0 0.00 0.00 0.00 70 1012.4
20260905020550 88 192 1.0 2.0 0.00 0.00 0.00 69 1012.4
20260905020047 89 192 1.0 2.0 0.00 0.00 0.00 69 1012.2
20260905015543 89 192 1.0 2.0 0.00 0.00 0.00 69 1012.2
20260905015101 89 192 1.0 2.0 0.00 0.00 0.00 69 1012.2
20260905014535 89 192 1.0 2.0 0.00 0.00 0.00 68 1012.0
20260905014032 90 192 0.0 1.0 0.00 0.00 0.00 67 1012.0
20260905013548 90 192 0.0 1.0 0.00 0.00 0.00 67 1011.9
20260905013045 90 192 0.0 3.0 0.00 0.00 0.00 66 1011.8
20260905012544 90 192 1.0 2.0 0.00 0.00 0.00 67 1011.7
20260905012041 90 192 1.0 2.0 0.00 0.00 0.00 67 1011.8
20260905011537 90 192 0.0 2.0 0.00 0.00 0.00 67 1011.8
20260905011033 90 192 1.0 2.0 0.00 0.00 0.00 67 1011.7
20260905010558 90 192 0.0 2.0 0.00 0.00 0.00 67 1011.8
20260905010036 90 192 1.0 2.0 0.00 0.00 0.00 66 1011.7
20260905005532 90 192 1.0 2.0 0.00 0.00 0.00 66 1011.7
20260905005046 90 192 1.0 2.0 0.00 0.00 0.00 66 1011.7
20260905004542 91 192 1.0 2.0 0.00 0.00 0.00 65 1011.7
20260905004038 92 192 0.0 2.0 0.00 0.00 0.00 63 1011.7
20260905003534 92 192 0.0 2.0 0.00 0.00 0.00 63 1011.6
20260905003049 92 192 0.0 2.0 0.00 0.00 0.00 62 1011.6
20260905002607 92 192 1.0 2.0 0.00 0.00 0.00 62 1011.5
20260905002041 92 192 1.0 2.0 0.00 0.00 0.00 62 1011.6
20260905001536 93 192 1.0 2.0 0.00 0.00 0.00 62 1011.5
20260905001031 93 192 1.0 3.0 0.00 0.00 0.00 61 1011.6
20260905000604 93 192 1.0 4.0 0.00 0.00 0.00 61 1011.6
20260905000058 93 192 2.0 4.0 0.00 0.00 0.00 60 1011.6
20260904235534 93 191 1.0 3.0 0.00 0.00 0.00 60 1011.6
20260904235050 93 191 1.0 4.0 0.00 0.00 0.00 60 1011.6
20260904234531 93 191 2.0 6.0 0.00 0.00 0.00 59 1011.6
20260904234046 94 188 2.0 6.0 0.00 0.00 0.00 59 1011.6
20260904233542 94 188 2.0 7.0 0.00 0.00 0.00 59 1011.6
20260904233038 95 188 3.0 7.0 0.00 0.00 0.00 58 1011.6
20260904232534 95 189 2.0 7.0 0.00 0.00 0.00 57 1011.7
20260904232050 96 190 3.0 6.0 0.00 0.00 0.00 57 1011.7
20260904231545 96 193 3.0 4.0 0.00 0.00 0.00 57 1011.7
20260904231104 95 198 2.0 4.0 0.00 0.00 0.00 58 1011.7
20260904230550 95 197 2.0 4.0 0.00 0.00 0.00 57 1011.8
20260904230047 95 198 1.0 4.0 0.00 0.00 0.00 57 1011.7
20260904225545 95 199 3.0 4.0 0.00 0.00 0.00 56 1011.7
20260904225102 95 204 2.0 5.0 0.00 0.00 0.00 56 1011.7
20260904224538 95 187 2.0 5.0 0.00 0.00 0.00 58 1011.7
20260904224034 95 181 2.0 6.0 0.00 0.00 0.00 57 1011.7
20260904223550 95 172 3.0 6.0 0.00 0.00 0.00 56 1011.7
20260904223045 95 191 3.0 8.0 0.00 0.00 0.00 56 1011.7
20260904222542 95 198 3.0 8.0 0.00 0.00 0.00 57 1011.7
20260904222038 95 226 1.0 4.0 0.00 0.00 0.00 57 1011.7
20260904221534 95 227 2.0 7.0 0.00 0.00 0.00 58 1011.7
20260904221051 95 227 2.0 9.0 0.00 0.00 0.00 57 1011.7
20260904220558 95 186 4.0 8.0 0.00 0.00 0.00 56 1011.6
20260904220037 96 177 3.0 7.0 0.00 0.00 0.00 55 1011.6
20260904215553 96 187 4.0 7.0 0.00 0.00 0.00 54 1011.7
20260904215105 96 186 4.0 7.0 0.00 0.00 0.00 54 1011.7
20260904214543 96 205 3.0 5.0 0.00 0.00 0.00 53 1011.7
20260904214038 96 217 2.0 5.0 0.00 0.00 0.00 55 1011.6
20260904213534 96 219 3.0 8.0 0.00 0.00 0.00 54 1011.6
20260904213050 96 164 4.0 8.0 0.00 0.00 0.00 54 1011.6
20260904212607 96 198 5.0 8.0 0.00 0.00 0.00 55 1011.6
20260904212042 96 240 4.0 7.0 0.00 0.00 0.00 54 1011.6
20260904211539 96 195 3.0 7.0 0.00 0.00 0.00 54 1011.7
20260904211036 96 205 3.0 11.0 0.00 0.00 0.00 55 1011.7
20260904210609 96 199 6.0 11.0 0.00 0.00 0.00 54 1011.6
20260904210045 96 219 2.0 8.0 0.00 0.00 0.00 55 1011.7
20260904205539 97 179 3.0 9.0 0.00 0.00 0.00 54 1011.6
20260904205035 97 190 3.0 9.0 0.00 0.00 0.00 55 1011.6
20260904204551 96 196 4.0 7.0 0.00 0.00 0.00 56 1011.7
20260904204046 96 185 3.0 7.0 0.00 0.00 0.00 55 1011.8
20260904203542 96 233 3.0 8.0 0.00 0.00 0.00 54 1011.7
20260904203037 96 196 4.0 8.0 0.00 0.00 0.00 54 1011.7
20260904202535 96 200 2.0 10.0 0.00 0.00 0.00 56 1011.8
20260904202031 96 188 2.0 10.0 0.00 0.00 0.00 55 1011.9
20260904201546 96 184 5.0 8.0 0.00 0.00 0.00 55 1012.0
20260904201044 96 187 3.0 7.0 0.00 0.00 0.00 57 1012.0
20260904200557 96 195 3.0 9.0 0.00 0.00 0.00 56 1012.0
20260904200054 96 231 3.0 9.0 0.00 0.00 0.00 56 1012.1
20260904195548 96 191 5.0 11.0 0.00 0.00 0.00 58 1012.0
20260904195106 95 175 5.0 11.0 0.00 0.00 0.00 58 1012.0
20260904194603 95 226 4.0 8.0 0.00 0.00 0.00 57 1012.1
20260904194058 95 193 2.0 6.0 0.00 0.00 0.00 58 1012.2
20260904193533 95 195 2.0 11.0 0.00 0.00 0.00 57 1012.1
20260904193111 95 242 3.0 11.0 0.00 0.00 0.00 58 1012.1
20260904192547 95 189 2.0 10.0 0.00 0.00 0.00 57 1012.1
20260904192044 95 186 4.0 10.0 0.00 0.00 0.00 57 1012.2
20260904191540 95 195 3.0 8.0 0.00 0.00 0.00 59 1012.2
20260904191037 95 192 2.0 9.0 0.00 0.00 0.00 58 1012.2
20260904190610 95 198 5.0 9.0 0.00 0.00 0.00 57 1012.3
20260904190043 94 207 4.0 9.0 0.00 0.00 0.00 59 1012.2
20260904185538 94 221 3.0 8.0 0.00 0.00 0.00 58 1012.3
20260904185035 94 175 3.0 8.0 0.00 0.00 0.00 58 1012.4
20260904184531 94 219 3.0 6.0 0.00 0.00 0.00 58 1012.4
20260904184046 94 220 2.0 5.0 0.00 0.00 0.00 58 1012.5
20260904183544 94 198 3.0 5.0 0.00 0.00 0.00 59 1012.4
20260904183038 94 230 3.0 9.0 0.00 0.00 0.00 58 1012.4
20260904182535 93 168 5.0 9.0 0.00 0.00 0.00 60 1012.5
20260904182052 93 185 2.0 5.0 0.00 0.00 0.00 59 1012.5
20260904181548 92 231 2.0 5.0 0.00 0.00 0.00 59 1012.6
20260904181043 92 233 2.0 8.0 0.00 0.00 0.00 61 1012.6
20260904180551 92 186 4.0 8.0 0.00 0.00 0.00 59 1012.6
20260904180033 92 169 2.0 7.0 0.00 0.00 0.00 61 1012.6
20260904175549 91 179 4.0 7.0 0.00 0.00 0.00 61 1012.5
20260904175046 91 194 3.0 9.0 0.00 0.00 0.00 63 1012.6
20260904174541 91 195 4.0 9.0 0.00 0.00 0.00 63 1012.6
20260904174036 90 184 2.0 5.0 0.00 0.00 0.00 64 1012.7
20260904173533 89 228 1.0 5.0 0.00 0.00 0.00 64 1012.6
20260904173111 89 221 3.0 5.0 0.00 0.00 0.00 65 1012.6
20260904172546 89 267 2.0 4.0 0.00 0.00 0.00 65 1012.6
20260904172041 89 193 2.0 6.0 0.00 0.00 0.00 66 1012.6
20260904171538 88 226 3.0 8.0 0.00 0.00 0.00 65 1012.7
20260904171054 88 195 2.0 8.0 0.00 0.00 0.00 66 1012.7
20260904170605 88 203 4.0 7.0 0.00 0.00 0.00 65 1012.7
20260904170039 88 190 2.0 6.0 0.00 0.00 0.00 68 1012.7
20260904165534 88 298 2.0 6.0 0.00 0.00 0.00 66 1012.7
20260904165032 87 188 2.0 6.0 0.00 0.00 0.00 68 1012.6
20260904164546 87 194 4.0 6.0 0.00 0.00 0.00 67 1012.6
20260904164043 87 185 3.0 10.0 0.00 0.00 0.00 68 1012.6
20260904163540 87 271 2.0 10.0 0.00 0.00 0.00 68 1012.7
20260904163036 86 189 2.0 5.0 0.00 0.00 0.00 68 1012.7
20260904162535 86 221 2.0 6.0 0.00 0.00 0.00 68 1012.6
20260904162031 86 206 1.0 5.0 0.00 0.00 0.00 69 1012.6
20260904161608 86 191 2.0 5.0 0.00 0.00 0.00 69 1012.7
20260904161043 85 205 2.0 6.0 0.00 0.00 0.00 70 1012.7
20260904160550 85 236 2.0 7.0 0.00 0.00 0.00 70 1012.7
20260904160048 85 194 3.0 7.0 0.00 0.00 0.00 70 1012.7
20260904155544 85 207 3.0 8.0 0.00 0.00 0.00 70 1012.7
20260904155059 85 169 2.0 8.0 0.00 0.00 0.00 70 1012.7
20260904154535 84 181 4.0 8.0 0.00 0.00 0.00 71 1012.7
20260904154031 84 195 2.0 4.0 0.00 0.00 0.00 71 1012.7
20260904153546 84 226 3.0 8.0 0.00 0.00 0.00 72 1012.8
20260904153043 84 190 4.0 9.0 0.00 0.00 0.00 72 1012.8
20260904152540 84 160 4.0 9.0 0.00 0.00 0.00 72 1012.7
20260904152035 83 202 3.0 7.0 0.00 0.00 0.00 72 1012.6
20260904151549 83 212 3.0 9.0 0.00 0.00 0.00 73 1012.7
20260904151045 83 195 4.0 8.0 0.00 0.00 0.00 73 1012.7
20260904150551 83 190 3.0 9.0 0.00 0.00 0.00 73 1012.7
20260904145537 82 205 3.0 8.0 0.00 0.00 0.00 73 1012.8
20260904145052 82 186 4.0 8.0 0.00 0.00 0.00 73 1012.8
20260904144532 82 203 4.0 8.0 0.00 0.00 0.00 74 1012.8
20260904144047 82 195 4.0 8.0 0.00 0.00 0.00 74 1012.7
20260904143544 82 184 2.0 6.0 0.00 0.00 0.00 74 1012.7
20260904143039 81 191 2.0 8.0 0.00 0.00 0.00 75 1012.7
20260904142535 81 185 3.0 6.0 0.00 0.00 0.00 75 1012.7
20260904142031 80 178 3.0 6.0 0.00 0.00 0.00 78 1012.7
20260904141546 80 199 2.0 6.0 0.00 0.00 0.00 77 1012.7
20260904141042 80 193 2.0 6.0 0.00 0.00 0.00 78 1012.6
20260904140611 80 195 3.0 7.0 0.00 0.00 0.00 78 1012.7
20260904140048 79 186 2.0 7.0 0.00 0.00 0.00 78 1012.7
20260904135543 79 179 3.0 5.0 0.00 0.00 0.00 79 1012.6
20260904135039 79 191 1.0 6.0 0.00 0.00 0.00 79 1012.6
20260904134534 78 184 3.0 7.0 0.00 0.00 0.00 79 1012.5
20260904134031 78 187 2.0 7.0 0.00 0.00 0.00 79 1012.4
20260904133546 78 188 2.0 7.0 0.00 0.00 0.00 79 1012.4
20260904133104 78 174 3.0 7.0 0.00 0.00 0.00 79 1012.5
20260904132539 78 121 2.0 10.0 0.00 0.00 0.00 79 1012.4
20260904132036 78 189 4.0 10.0 0.00 0.00 0.00 79 1012.4
20260904131532 78 198 5.0 9.0 0.00 0.00 0.00 79 1012.3
20260904131031 78 191 4.0 8.0 0.00 0.00 0.00 79 1012.2
20260904130557 77 197 3.0 7.0 0.00 0.00 0.00 79 1012.1
20260904130035 77 195 4.0 7.0 0.00 0.00 0.00 80 1012.1
20260904125530 77 191 2.0 7.0 0.00 0.00 0.00 80 1012.1
20260904125046 77 187 2.0 5.0 0.00 0.00 0.00 80 1012.1
20260904124603 77 190 2.0 5.0 0.00 0.00 0.00 80 1012.0
20260904124039 77 186 2.0 6.0 0.00 0.00 0.00 80 1012.0
20260904123534 77 181 1.0 6.0 0.00 0.00 0.00 80 1011.9
20260904123031 77 188 2.0 4.0 0.00 0.00 0.00 80 1011.9
20260904122546 77 188 1.0 3.0 0.00 0.00 0.00 80 1011.9
20260904122105 77 190 1.0 2.0 0.00 0.00 0.00 80 1011.8
20260904121539 77 190 1.0 2.0 0.00 0.00 0.00 80 1011.8
20260904121057 77 190 0.0 2.0 0.00 0.00 0.00 80 1011.8
20260904120608 77 190 1.0 2.0 0.00 0.00 0.00 79 1011.8
20260904120046 77 190 1.0 3.0 0.00 0.00 0.00 79 1011.8
20260904115540 77 190 1.0 2.0 0.00 0.00 0.00 79 1011.7
20260904115034 77 190 1.0 4.0 0.00 0.00 0.00 79 1011.6
20260904114531 77 190 1.0 4.0 0.00 0.00 0.00 79 1011.6
20260904114046 77 191 1.0 4.0 0.00 0.00 0.00 79 1011.6
20260904113541 77 191 1.0 4.0 0.00 0.00 0.00 79 1011.5
20260904113038 77 191 1.0 4.0 0.00 0.00 0.00 79 1011.5
20260904112538 77 191 0.0 3.0 0.00 0.00 0.00 78 1011.4
20260904112033 77 191 2.0 3.0 0.00 0.00 0.00 78 1011.5
20260904111611 77 191 1.0 3.0 0.00 0.00 0.00 78 1011.5
20260904111045 78 191 1.0 3.0 0.00 0.00 0.00 78 1011.4
20260904110553 78 191 1.0 3.0 0.00 0.00 0.00 78 1011.4
20260904110030 78 191 2.0 3.0 0.00 0.00 0.00 78 1011.5
20260904105546 78 191 2.0 3.0 0.00 0.00 0.00 78 1011.4
20260904105042 78 191 1.0 3.0 0.00 0.00 0.00 78 1011.4
20260904104537 78 191 2.0 4.0 0.00 0.00 0.00 77 1011.4
20260904104032 78 192 2.0 4.0 0.00 0.00 0.00 77 1011.4
20260904103548 78 191 2.0 4.0 0.00 0.00 0.00 77 1011.3
20260904103043 78 191 2.0 4.0 0.00 0.00 0.00 77 1011.4
20260904102559 78 192 2.0 4.0 0.00 0.00 0.00 77 1011.5
20260904102035 78 191 2.0 4.0 0.00 0.00 0.00 77 1011.5
20260904101531 78 191 2.0 3.0 0.00 0.00 0.00 77 1011.4
20260904101047 78 191 1.0 4.0 0.00 0.00 0.00 76 1011.4
20260904100555 78 191 2.0 4.0 0.00 0.00 0.00 76 1011.5
20260904100031 78 191 3.0 4.0 0.00 0.01 0.00 76 1011.4
20260904095609 78 191 2.0 4.0 0.00 0.01 0.00 76 1011.4
20260904095043 78 191 1.0 3.0 0.00 0.01 0.00 76 1011.3
20260904094539 78 191 2.0 4.0 0.00 0.01 0.00 76 1011.3
20260904094036 78 192 2.0 5.0 0.00 0.01 0.00 75 1011.1
20260904093535 78 191 3.0 5.0 0.00 0.01 0.00 75 1011.1
20260904093031 78 198 1.0 5.0 0.00 0.01 0.00 75 1011.1
20260904092608 78 193 2.0 5.0 0.00 0.01 0.00 75 1011.1
20260904092043 78 190 2.0 5.0 0.00 0.01 0.00 75 1011.1
20260904091539 78 199 2.0 5.0 0.00 0.01 0.00 75 1011.0
20260904091057 78 192 1.0 4.0 0.00 0.01 0.00 75 1011.0
20260904090609 78 188 1.0 4.0 0.00 0.01 0.00 75 1011.0
20260904090042 79 194 1.0 6.0 0.00 0.01 0.00 74 1010.9
20260904085601 79 193 2.0 6.0 0.00 0.01 0.00 74 1010.9
20260904085036 79 179 2.0 4.0 0.00 0.01 0.00 74 1010.9
20260904084532 79 174 1.0 5.0 0.00 0.01 0.00 74 1010.9
20260904084048 79 198 2.0 5.0 0.00 0.01 0.00 74 1010.9
20260904083608 79 195 3.0 6.0 0.00 0.01 0.00 73 1010.9
20260904083042 79 187 2.0 6.0 0.00 0.01 0.00 73 1010.8
20260904082538 79 212 1.0 7.0 0.00 0.01 0.00 73 1010.8
20260904082033 79 201 3.0 7.0 0.00 0.01 0.00 73 1010.8
20260904081530 79 193 3.0 7.0 0.00 0.01 0.00 72 1010.8
20260904081029 79 179 2.0 4.0 0.00 0.01 0.00 72 1010.8